Location: Trebic
(49.2170°N, 15.8830°E)
Time: 18:13:21
(UTC+02:00)

Transit 2A Rocket - Pass Details

Date: 23 July 2019
Orbit: 590 x 913 km, 66.7° (Epoch: 20 August)

Event Time Altitude Azimuth Distance (km) Brightness Sun altitude
Rises 07:43:07 0° 301° (WNW) 3,393 7.9 21.6°
Reaches altitude 10° 07:47:28 10° 332° (NNW) 2,378 7.4 22.3°
Maximum altitude 07:49:29 12° 354° (N) 2,202 7.5 22.6°
Drops below altitude 10° 07:51:27 10° 16° (NNE) 2,296 7.8 22.9°
Sets 07:55:28 0° 48° (NE) 3,131 9.0 23.6°
